| time (UTC) | temp F | wind direction | speed MPH | gust MPH | rain 1hr in | rain 24hr in | rain mn in | humidity % | barometer mb |
| 20260510013103 | 45 | 50 | 5.0 | 0.0 | 0.00 | 0.00 | 0.00 | 87 | 1017.0 |
| 20260510012054 | 43 | 50 | 7.0 | 0.0 | 0.00 | 0.00 | 0.00 | 86 | |
| 20260510010211 | 45 | 50 | 6.0 | 0.0 | 0.00 | 0.00 | 0.00 | 87 | 1017.0 |
| 20260510003103 | 46 | 40 | 3.0 | 0.0 | 0.00 | 0.00 | 0.00 | 81 | 1018.0 |
| 20260510001853 | 46 | 90 | 5.0 | 0.0 | 0.00 | 0.00 | 0.00 | 75 | |
| 20260510000103 | 48 | 80 | 3.0 | 0.0 | 0.00 | 0.00 | 0.00 | 76 | 1018.0 |
| 20260509233103 | 48 | 110 | 3.0 | 0.0 | 0.00 | 0.00 | 0.00 | 76 | 1018.0 |
| 20260509231852 | 46 | 90 | 7.0 | 0.0 | 0.00 | 0.00 | 0.00 | 81 | |
| 20260509230209 | 48 | 90 | 6.0 | 0.0 | 0.00 | 0.00 | 0.00 | 76 | 1018.0 |
| 20260509223104 | 50 | 80 | 7.0 | 0.0 | 0.00 | 0.00 | 0.00 | 71 | 1018.0 |
| 20260509222154 | 48 | 80 | 9.0 | 0.0 | 0.00 | 0.00 | 0.00 | 76 | |
| 20260509220210 | 52 | 80 | 8.0 | 0.0 | 0.00 | 0.00 | 0.00 | 71 | 1018.0 |
| 20260509214301 | 52 | 90 | 7.0 | 0.0 | 0.00 | 0.00 | 0.00 | 71 | 1018.0 |
| 20260509213103 | 48 | 110 | 6.0 | 0.0 | 0.00 | 0.00 | 0.00 | 76 | 1019.0 |
| 20260509211852 | 48 | 90 | 5.0 | 0.0 | 0.00 | 0.00 | 0.00 | 76 | |
| 20260509210211 | 50 | 90 | 6.0 | 0.0 | 0.00 | 0.00 | 0.00 | 76 | 1019.0 |
| 20260509203102 | 52 | 80 | 6.0 | 0.0 | 0.00 | 0.00 | 0.00 | 71 | 1019.0 |
| 20260509201851 | 50 | 70 | 7.0 | 0.0 | 0.00 | 0.00 | 0.00 | 71 | |
| 20260509200210 | 52 | 70 | 6.0 | 0.0 | 0.00 | 0.00 | 0.00 | 71 | 1019.0 |
| 20260509193103 | 54 | 70 | 7.0 | 0.0 | 0.00 | 0.00 | 0.00 | 66 | 1018.0 |
| 20260509191953 | 52 | 70 | 7.0 | 0.0 | 0.00 | 0.00 | 0.00 | 71 | |
| 20260509190211 | 54 | 70 | 6.0 | 0.0 | 0.00 | 0.00 | 0.00 | 66 | 1018.0 |
| 20260509183102 | 55 | 60 | 6.0 | 0.0 | 0.00 | 0.00 | 0.00 | 62 | 1018.0 |
| 20260509181851 | 55 | 70 | 9.0 | 0.0 | 0.00 | 0.00 | 0.00 | 62 | |
| 20260509180213 | 57 | 70 | 9.0 | 0.0 | 0.00 | 0.00 | 0.00 | 58 | 1018.0 |
| 20260509173103 | 59 | 60 | 8.0 | 0.0 | 0.00 | 0.00 | 0.00 | 54 | 1018.0 |
| 20260509171852 | 59 | 60 | 9.0 | 0.0 | 0.00 | 0.00 | 0.00 | 51 | |
| 20260509170212 | 59 | 60 | 9.0 | 0.0 | 0.00 | 0.00 | 0.00 | 51 | 1018.0 |
| 20260509163102 | 61 | 70 | 9.0 | 0.0 | 0.00 | 0.00 | 0.00 | 51 | 1018.0 |
| 20260509162152 | 59 | 80 | 9.0 | 0.0 | 0.00 | 0.00 | 0.00 | 54 | |
| 20260509153103 | 61 | 40 | 6.0 | 0.0 | 0.00 | 0.00 | 0.00 | 51 | 1018.0 |
| 20260509151851 | 61 | 30 | 7.0 | 0.0 | 0.00 | 0.00 | 0.00 | 51 | |
| 20260509150210 | 61 | 20 | 7.0 | 0.0 | 0.00 | 0.00 | 0.00 | 51 | 1018.0 |
| 20260509143103 | 61 | 30 | 6.0 | 0.0 | 0.00 | 0.00 | 0.00 | 48 | 1019.0 |
| 20260509141852 | 61 | 70 | 7.0 | 0.0 | 0.00 | 0.00 | 0.00 | 51 | |
| 20260509140211 | 61 | 60 | 6.0 | 0.0 | 0.00 | 0.00 | 0.00 | 51 | 1019.0 |
| 20260509133103 | 61 | 360 | 6.0 | 0.0 | 0.00 | 0.00 | 0.00 | 48 | 1019.0 |
| 20260509131951 | 61 | 50 | 7.0 | 0.0 | 0.00 | 0.00 | 0.00 | 51 | |
| 20260509130211 | 61 | 60 | 7.0 | 0.0 | 0.00 | 0.00 | 0.00 | 48 | 1019.0 |
| 20260509123103 | 61 | 350 | 7.0 | 0.0 | 0.00 | 0.00 | 0.00 | 51 | 1019.0 |
| 20260509121852 | 59 | 10 | 5.0 | 0.0 | 0.00 | 0.00 | 0.00 | 54 | |
| 20260509113103 | 57 | 340 | 5.0 | 0.0 | 0.00 | 0.00 | 0.00 | 62 | 1020.0 |
| 20260509111851 | 57 | 10 | 5.0 | 0.0 | 0.00 | 0.00 | 0.00 | 58 | |
| 20260509110103 | 57 | 20 | 3.0 | 0.0 | 0.00 | 0.00 | 0.00 | 58 | 1020.0 |
| 20260509103103 | 57 | 10 | 5.0 | 0.0 | 0.00 | 0.00 | 0.00 | 58 | 1020.0 |
| 20260509102051 | 57 | 60 | 7.0 | 0.0 | 0.00 | 0.00 | 0.00 | 58 | |
| 20260509093103 | 57 | 50 | 5.0 | 0.0 | 0.00 | 0.00 | 0.00 | 58 | 1020.0 |
| 20260509091853 | 57 | 50 | 5.0 | 0.0 | 0.00 | 0.00 | 0.00 | 58 | |
| 20260509090210 | 57 | 40 | 5.0 | 0.0 | 0.00 | 0.00 | 0.00 | 54 | 1020.0 |
| 20260509083102 | 55 | 0 | 3.0 | 0.0 | 0.00 | 0.00 | 0.00 | 66 | 1020.0 |
| 20260509081853 | 55 | 30 | 2.0 | 0.0 | 0.00 | 0.00 | 0.00 | 66 | |
| 20260509080211 | 55 | 0 | 2.0 | 0.0 | 0.00 | 0.00 | 0.00 | 71 | 1020.0 |
| 20260509073103 | 54 | 20 | 6.0 | 0.0 | 0.00 | 0.00 | 0.00 | 76 | 1020.0 |
| 20260509071950 | 54 | 40 | 7.0 | 0.0 | 0.00 | 0.00 | 0.00 | 76 | |
| 20260509070210 | 52 | 50 | 7.0 | 0.0 | 0.00 | 0.00 | 0.00 | 81 | 1020.0 |
| 20260509063102 | 52 | 30 | 5.0 | 0.0 | 0.00 | 0.00 | 0.00 | 81 | 1020.0 |
| 20260509061853 | 50 | 40 | 2.0 | 0.0 | 0.00 | 0.00 | 0.00 | 87 | |
| 20260509060213 | 50 | 40 | 3.0 | 0.0 | 0.00 | 0.00 | 0.00 | 81 | 1020.0 |
| 20260509053103 | 48 | 360 | 3.0 | 0.0 | 0.00 | 0.00 | 0.00 | 87 | 1020.0 |
| 20260509051851 | 48 | 360 | 2.0 | 0.0 | 0.00 | 0.00 | 0.00 | 87 | |
| 20260509050210 | 50 | 0 | 1.0 | 0.0 | 0.00 | 0.00 | 0.00 | 87 | 1020.0 |
| 20260509043103 | 45 | 320 | 1.0 | 0.0 | 0.00 | 0.00 | 0.00 | 93 | 1019.0 |
| 20260509042055 | 45 | 340 | 2.0 | 0.0 | 0.00 | 0.00 | 0.00 | 93 | |
| 20260509040203 | 45 | 340 | 1.0 | 0.0 | 0.00 | 0.00 | 0.00 | 93 | 1019.0 |
| 20260509033102 | 45 | 350 | 2.0 | 0.0 | 0.00 | 0.00 | 0.00 | 100 | 1019.0 |
| 20260509031851 | 46 | 350 | 2.0 | 0.0 | 0.00 | 0.00 | 0.00 | 87 | |
| 20260509023103 | 45 | 10 | 2.0 | 0.0 | 0.00 | 0.00 | 0.00 | 100 | 1019.0 |
| 20260509021851 | 46 | 10 | 2.0 | 0.0 | 0.00 | 0.00 | 0.00 | 87 |